Flag for Germany Weather past 2 weeks in Hemer, North Rhine-Westphalia, Germany

Now
63 °F

Clear.


Feels Like: 63 °F
Forecast: 58 / 73 °F
Wind: 6 mph from Southeast

Location: Dortmund / Wickede

Current Time: Sep 17, 2014 at 1:59:38 AM

Latest Report: Sep 16, 2014 at 10:50 PM


Visibility: 10 mi

Pressure: 29.98 "Hg

Humidity: 77%

Dew point: 55 °F

Location of HemerLocation

Historic Weather in Hemer — Graph

°F

Hemer temperature yesterday

Maximum temperature yesterday: 77 °F (at 1:50 PM)
Minimum temperature yesterday: 55 °F (at 6:20 AM)
Average temperature yesterday: 67 °F

Past Weeks' High & Low Weather Summary

 TemperatureHumidityPressure
High77 °F (Sep 6, 1:50 PM)100% (Sep 3, 9:20 AM)30.24 "Hg (Sep 3, 9:20 AM)
Low43 °F (Sep 12, 5:50 AM)44% (Sep 16, 3:20 PM)29.89 "Hg (Sep 6, 6:50 AM)
Average61 °F75%30.08 "Hg
* Reported Sep 1 10:20 PM — Sep 16 10:50 PM, Hemer, Weather by CustomWeather, © 2014

Note: Actual official high and low records may vary slightly from our data, if they occured in-between our weather recording intervals... More about our weather records

Advertising

Hemer weather history for previous 24 hours

 ConditionsComfort  
Time TempWeatherWind HumidityBarometerVisibility
10:50 PM
Sep 16
63 °FClear.6 mph77%29.98 "Hg10 mi
10:20 PM64 °FClear.6 mph73%29.98 "Hg10 mi
9:50 PM66 °FPassing clouds.7 mph68%29.98 "HgN/A
9:20 PM64 °FClear.7 mph73%29.98 "Hg10 mi
8:50 PM66 °FClear.6 mph68%29.98 "Hg10 mi
8:20 PM68 °FSunny.5 mph64%29.98 "Hg10 mi
7:50 PM68 °FSunny.3 mph64%29.95 "Hg10 mi
7:20 PM70 °FSunny.6 mph60%29.95 "Hg10 mi
6:50 PM72 °FSunny.6 mph57%29.95 "Hg10 mi
6:20 PM72 °FPassing clouds.5 mph57%29.95 "HgN/A
5:50 PM72 °FPassing clouds.8 mph53%29.95 "HgN/A
5:20 PM72 °FPassing clouds.7 mph53%29.95 "HgN/A
4:50 PM75 °FPassing clouds.8 mph47%29.95 "HgN/A
4:20 PM77 °FPassing clouds.9 mph44%29.95 "HgN/A
3:50 PM73 °FPassing clouds.10 mph44%29.95 "HgN/A
3:20 PM75 °FPassing clouds.10 mph44%29.98 "HgN/A
2:50 PM75 °FPassing clouds.10 mph47%29.98 "HgN/A
2:20 PM73 °FPartly sunny.12 mph47%29.98 "HgN/A
1:50 PM77 °FPartly sunny.9 mph51%29.98 "HgN/A
1:20 PM75 °FPartly sunny.5 mph50%29.98 "HgN/A
12:50 PM72 °FScattered clouds.6 mph65%30.01 "HgN/A
12:20 PM72 °FPassing clouds.5 mph65%30.01 "HgN/A
11:50 AM72 °FPassing clouds.5 mph69%30.01 "HgN/A
11:20 AM68 °FPassing clouds.5 mph73%30.01 "HgN/A
10:50 AM66 °FSunny.3 mph78%30.01 "Hg10 mi
10:20 AM64 °FSunny.3 mph78%30.01 "Hg10 mi
9:50 AM63 °FClear.3 mph83%30.01 "Hg6 mi
9:20 AM61 °FClear.3 mph88%30.01 "Hg6 mi
8:50 AM59 °FClear.2 mph94%30.01 "Hg6 mi
8:20 AM59 °FClear.6 mph94%30.01 "Hg6 mi
7:50 AM55 °FClear.2 mph94%30.01 "Hg4 mi
7:20 AM55 °FFog.2 mph88%30.01 "Hg5 mi
6:50 AM55 °FFog.1 mph94%30.01 "Hg4 mi
6:20 AM55 °FClear.2 mph94%30.01 "Hg6 mi
5:50 AM57 °FClear.5 mph94%30.01 "Hg6 mi
5:20 AM57 °FClear.7 mph88%30.01 "Hg4 mi
Weather by CustomWeather, © 2014

See weather overviewHow to use our weather pages